Time,TemperatureF,DewpointF,PressureIn,WindDirection,WindDirectionDegrees,WindSpeedMPH,WindSpeedGustMPH,Humidity,HourlyPrecipIn,Conditions,Clouds,dailyrainin,SoftwareType,DateUTC
2013-06-19 00:05:00,51.9,44.6,30.12,NE,41,0.0,14.0,76,0.00,,,0.00,Wunderground v.1.15,2013-06-19 04:05:00,
2013-06-19 00:10:00,51.8,44.8,30.12,NE,41,0.0,14.0,77,0.00,,,0.00,Wunderground v.1.15,2013-06-19 04:10:00,
2013-06-19 00:15:00,51.7,44.7,30.12,NE,41,0.0,14.0,77,0.00,,,0.00,Wunderground v.1.15,2013-06-19 04:15:00,
2013-06-19 00:20:00,51.7,44.7,30.12,NE,41,0.0,14.0,77,0.00,,,0.00,Wunderground v.1.15,2013-06-19 04:20:00,
2013-06-19 00:25:00,51.6,45.0,30.12,NE,41,0.0,14.0,78,0.00,,,0.00,Wunderground v.1.15,2013-06-19 04:25:00,
2013-06-19 00:35:00,51.3,45.0,30.12,NE,41,0.0,14.0,79,0.00,,,0.00,Wunderground v.1.15,2013-06-19 04:35:00,
2013-06-19 00:40:00,51.2,45.2,30.12,NE,41,0.0,14.0,80,0.00,,,0.00,Wunderground v.1.15,2013-06-19 04:40:00,
2013-06-19 00:45:00,51.2,45.2,30.12,NE,41,0.0,14.0,80,0.00,,,0.00,Wunderground v.1.15,2013-06-19 04:45:00,
2013-06-19 00:50:00,51.2,45.2,30.12,NE,41,0.0,14.0,80,0.00,,,0.00,Wunderground v.1.15,2013-06-19 04:50:00,
2013-06-19 00:55:00,51.1,45.1,30.12,NE,41,0.0,14.0,80,0.00,,,0.00,Wunderground v.1.15,2013-06-19 04:55:00,
2013-06-19 01:00:00,50.9,45.3,30.12,NE,41,0.0,14.0,81,0.00,,,0.00,Wunderground v.1.15,2013-06-19 05:00:00,
2013-06-19 01:10:00,50.7,45.4,30.13,NE,41,0.0,14.0,82,0.00,,,0.00,Wunderground v.1.15,2013-06-19 05:10:00,
2013-06-19 01:15:00,50.6,45.3,30.12,NE,41,0.0,14.0,82,0.00,,,0.00,Wunderground v.1.15,2013-06-19 05:15:00,
2013-06-19 01:20:00,50.6,45.3,30.12,NE,41,0.0,14.0,82,0.00,,,0.00,Wunderground v.1.15,2013-06-19 05:20:00,
2013-06-19 01:25:00,50.6,45.6,30.12,NE,41,0.0,14.0,83,0.00,,,0.00,Wunderground v.1.15,2013-06-19 05:25:00,
2013-06-19 01:30:00,50.6,45.6,30.12,NE,41,0.0,14.0,83,0.00,,,0.00,Wunderground v.1.15,2013-06-19 05:30:00,
2013-06-19 01:40:00,50.5,45.5,30.13,NE,41,0.0,14.0,83,0.00,,,0.00,Wunderground v.1.15,2013-06-19 05:40:00,
2013-06-19 01:45:00,50.4,45.4,30.13,NE,41,0.0,14.0,83,0.00,,,0.00,Wunderground v.1.15,2013-06-19 05:45:00,
2013-06-19 01:50:00,50.3,45.0,30.13,NE,41,0.0,14.0,82,0.00,,,0.00,Wunderground v.1.15,2013-06-19 05:50:00,
2013-06-19 01:55:00,50.0,44.7,30.13,NE,41,0.0,14.0,82,0.00,,,0.00,Wunderground v.1.15,2013-06-19 05:55:00,
2013-06-19 02:00:00,49.7,44.7,30.13,NE,41,0.0,14.0,83,0.00,,,0.00,Wunderground v.1.15,2013-06-19 06:00:00,
2013-06-19 02:20:00,48.7,44.4,30.13,NE,41,0.0,14.0,85,0.00,,,0.00,Wunderground v.1.15,2013-06-19 06:20:00,
2013-06-19 02:25:00,48.5,44.2,30.13,NE,41,0.0,14.0,85,0.00,,,0.00,Wunderground v.1.15,2013-06-19 06:25:00,
2013-06-19 02:30:00,48.5,44.2,30.14,NE,41,0.0,14.0,85,0.00,,,0.00,Wunderground v.1.15,2013-06-19 06:30:00,
2013-06-19 02:35:00,48.5,44.5,30.14,NE,41,0.0,14.0,86,0.00,,,0.00,Wunderground v.1.15,2013-06-19 06:35:00,
2013-06-19 02:40:00,48.3,44.3,30.14,NE,41,0.0,14.0,86,0.00,,,0.00,Wunderground v.1.15,2013-06-19 06:40:00,
2013-06-19 02:50:00,47.7,44.0,30.14,NE,41,0.0,14.0,87,0.00,,,0.00,Wunderground v.1.15,2013-06-19 06:50:00,
2013-06-19 02:55:00,47.5,43.8,30.14,NE,41,0.0,14.0,87,0.00,,,0.00,Wunderground v.1.15,2013-06-19 06:55:00,
2013-06-19 03:00:00,47.3,43.9,30.14,NE,41,0.0,14.0,88,0.00,,,0.00,Wunderground v.1.15,2013-06-19 07:00:00,
2013-06-19 03:05:00,47.1,43.7,30.14,NE,41,0.0,14.0,88,0.00,,,0.00,Wunderground v.1.15,2013-06-19 07:05:00,
2013-06-19 03:10:00,46.9,43.5,30.14,NE,41,0.0,14.0,88,0.00,,,0.00,Wunderground v.1.15,2013-06-19 07:10:00,
2013-06-19 03:20:00,46.6,43.5,30.14,NE,41,0.0,14.0,89,0.00,,,0.00,Wunderground v.1.15,2013-06-19 07:20:00,
2013-06-19 03:25:00,46.6,43.5,30.14,NE,41,0.0,14.0,89,0.00,,,0.00,Wunderground v.1.15,2013-06-19 07:25:00,
2013-06-19 03:30:00,46.5,43.4,30.14,NE,41,0.0,14.0,89,0.00,,,0.00,Wunderground v.1.15,2013-06-19 07:30:00,
2013-06-19 03:35:00,46.3,43.2,30.14,NE,41,0.0,14.0,89,0.00,,,0.00,Wunderground v.1.15,2013-06-19 07:35:00,
2013-06-19 03:40:00,46.1,43.3,30.15,NE,41,0.0,14.0,90,0.00,,,0.00,Wunderground v.1.15,2013-06-19 07:40:00,
2013-06-19 03:45:00,46.0,43.2,30.15,NE,41,0.0,14.0,90,0.00,,,0.00,Wunderground v.1.15,2013-06-19 07:45:00,
2013-06-19 03:55:00,46.0,43.2,30.15,NE,41,0.0,14.0,90,0.00,,,0.00,Wunderground v.1.15,2013-06-19 07:55:00,
2013-06-19 04:00:00,46.3,43.5,30.15,NE,46,0.0,14.0,90,0.00,,,0.00,Wunderground v.1.15,2013-06-19 08:00:00,
2013-06-19 04:05:00,46.6,43.8,30.16,NE,46,0.0,14.0,90,0.00,,,0.00,Wunderground v.1.15,2013-06-19 08:05:00,
2013-06-19 04:10:00,46.9,44.1,30.16,NE,46,0.0,14.0,90,0.00,,,0.00,Wunderground v.1.15,2013-06-19 08:10:00,
2013-06-19 04:15:00,46.9,43.8,30.16,NE,46,0.0,14.0,89,0.00,,,0.00,Wunderground v.1.15,2013-06-19 08:15:00,
2013-06-19 04:25:00,46.8,43.4,30.16,NE,46,0.0,14.0,88,0.00,,,0.00,Wunderground v.1.15,2013-06-19 08:25:00,
2013-06-19 04:30:00,46.7,43.6,30.16,NE,46,0.0,14.0,89,0.00,,,0.00,Wunderground v.1.15,2013-06-19 08:30:00,
2013-06-19 04:40:00,46.4,43.3,30.17,NE,46,0.0,14.0,89,0.00,,,0.00,Wunderground v.1.15,2013-06-19 08:40:00,
2013-06-19 04:45:00,46.3,43.2,30.17,NE,46,0.0,14.0,89,0.00,,,0.00,Wunderground v.1.15,2013-06-19 08:45:00,
2013-06-19 04:50:00,46.2,43.4,30.17,NE,46,0.0,14.0,90,0.00,,,0.00,Wunderground v.1.15,2013-06-19 08:50:00,
2013-06-19 05:00:00,45.9,43.1,30.17,NE,46,0.0,14.0,90,0.00,,,0.00,Wunderground v.1.15,2013-06-19 09:00:00,
2013-06-19 05:05:00,45.8,43.3,30.17,NE,46,0.0,14.0,91,0.00,,,0.00,Wunderground v.1.15,2013-06-19 09:05:00,
2013-06-19 05:15:00,45.6,43.1,30.17,NE,46,0.0,14.0,91,0.00,,,0.00,Wunderground v.1.15,2013-06-19 09:15:00,
2013-06-19 05:25:00,45.8,43.6,30.18,ENE,57,0.0,14.0,92,0.00,,,0.00,Wunderground v.1.15,2013-06-19 09:25:00,
2013-06-19 05:30:00,45.9,43.4,30.18,ENE,57,0.0,14.0,91,0.00,,,0.00,Wunderground v.1.15,2013-06-19 09:30:00,
2013-06-19 05:35:00,45.9,43.4,30.18,ENE,59,0.0,14.0,91,0.00,,,0.00,Wunderground v.1.15,2013-06-19 09:35:00,
2013-06-19 05:40:00,45.9,43.4,30.18,ENE,59,0.0,14.0,91,0.00,,,0.00,Wunderground v.1.15,2013-06-19 09:40:00,
2013-06-19 05:45:00,45.9,43.4,30.19,ENE,59,0.0,14.0,91,0.00,,,0.00,Wunderground v.1.15,2013-06-19 09:45:00,
2013-06-19 05:50:00,45.8,43.3,30.19,ENE,59,0.0,14.0,91,0.00,,,0.00,Wunderground v.1.15,2013-06-19 09:50:00,
2013-06-19 06:00:00,45.8,43.3,30.19,ENE,59,0.0,14.0,91,0.00,,,0.00,Wunderground v.1.15,2013-06-19 10:00:00,
2013-06-19 06:05:00,45.8,43.6,30.19,ENE,59,0.0,14.0,92,0.00,,,0.00,Wunderground v.1.15,2013-06-19 10:05:00,
2013-06-19 06:10:00,45.6,43.4,30.19,ENE,59,0.0,14.0,92,0.00,,,0.00,Wunderground v.1.15,2013-06-19 10:10:00,
2013-06-19 06:15:00,45.6,43.4,30.19,ENE,60,0.0,14.0,92,0.00,,,0.00,Wunderground v.1.15,2013-06-19 10:15:00,
2013-06-19 06:25:00,46.1,44.2,30.19,ENE,59,0.0,14.0,93,0.00,,,0.00,Wunderground v.1.15,2013-06-19 10:25:00,
2013-06-19 06:30:00,46.1,44.2,30.19,ENE,59,0.0,14.0,93,0.00,,,0.00,Wunderground v.1.15,2013-06-19 10:30:00,
2013-06-19 06:35:00,46.2,44.3,30.19,ENE,60,0.0,14.0,93,0.00,,,0.00,Wunderground v.1.15,2013-06-19 10:35:00,
2013-06-19 06:40:00,46.4,44.5,30.19,ENE,63,0.0,14.0,93,0.00,,,0.00,Wunderground v.1.15,2013-06-19 10:40:00,
2013-06-19 06:45:00,47.0,45.1,30.20,ENE,69,0.0,14.0,93,0.00,,,0.00,Wunderground v.1.15,2013-06-19 10:45:00,
2013-06-19 06:55:00,48.0,46.1,30.20,ENE,69,0.0,14.0,93,0.00,,,0.00,Wunderground v.1.15,2013-06-19 10:55:00,
2013-06-19 07:05:00,48.8,46.6,30.20,ENE,69,0.0,14.0,92,0.00,,,0.00,Wunderground v.1.15,2013-06-19 11:05:00,
2013-06-19 07:10:00,49.3,46.8,30.19,ENE,69,0.0,14.0,91,0.00,,,0.00,Wunderground v.1.15,2013-06-19 11:10:00,
2013-06-19 07:20:00,50.4,47.6,30.19,ENE,68,0.0,14.0,90,0.00,,,0.00,Wunderground v.1.15,2013-06-19 11:20:00,
2013-06-19 07:30:00,51.0,47.6,30.19,ENE,68,0.0,14.0,88,0.00,,,0.00,Wunderground v.1.15,2013-06-19 11:30:00,
2013-06-19 07:40:00,51.5,47.8,30.19,ENE,69,0.0,14.0,87,0.00,,,0.00,Wunderground v.1.15,2013-06-19 11:40:00,
2013-06-19 07:45:00,51.8,48.1,30.19,ENE,69,0.0,14.0,87,0.00,,,0.00,Wunderground v.1.15,2013-06-19 11:45:00,
2013-06-19 07:50:00,52.0,48.3,30.19,ENE,68,0.0,14.0,87,0.00,,,0.00,Wunderground v.1.15,2013-06-19 11:50:00,
2013-06-19 08:00:00,52.4,48.3,30.19,ENE,67,0.0,14.0,86,0.00,,,0.00,Wunderground v.1.15,2013-06-19 12:00:00,
2013-06-19 08:05:00,52.5,48.1,30.20,ENE,71,0.0,14.0,85,0.00,,,0.00,Wunderground v.1.15,2013-06-19 12:05:00,
2013-06-19 08:10:00,52.8,48.1,30.20,ENE,71,0.0,14.0,84,0.00,,,0.00,Wunderground v.1.15,2013-06-19 12:10:00,
2013-06-19 08:20:00,53.1,48.1,30.20,ENE,67,0.0,14.0,83,0.00,,,0.00,Wunderground v.1.15,2013-06-19 12:20:00,
2013-06-19 08:25:00,53.3,48.3,30.20,ENE,68,0.0,14.0,83,0.00,,,0.00,Wunderground v.1.15,2013-06-19 12:25:00,
2013-06-19 08:30:00,53.5,48.8,30.20,ENE,68,0.0,14.0,84,0.00,,,0.00,Wunderground v.1.15,2013-06-19 12:30:00,
2013-06-19 08:35:00,53.6,48.6,30.20,ENE,73,0.0,14.0,83,0.00,,,0.00,Wunderground v.1.15,2013-06-19 12:35:00,
2013-06-19 08:40:00,53.9,48.5,30.20,ENE,70,0.0,14.0,82,0.00,,,0.00,Wunderground v.1.15,2013-06-19 12:40:00,
2013-06-19 08:45:00,54.1,48.4,30.19,ESE,120,0.0,14.0,81,0.00,,,0.00,Wunderground v.1.15,2013-06-19 12:45:00,
2013-06-19 08:50:00,54.3,48.3,30.20,ESE,111,0.0,14.0,80,0.00,,,0.00,Wunderground v.1.15,2013-06-19 12:50:00,
2013-06-19 08:55:00,54.6,48.9,30.20,ESE,111,0.0,14.0,81,0.00,,,0.00,Wunderground v.1.15,2013-06-19 12:55:00,
2013-06-19 09:00:00,54.8,49.1,30.20,ESE,111,0.0,14.0,81,0.00,,,0.00,Wunderground v.1.15,2013-06-19 13:00:00,
2013-06-19 09:05:00,55.1,48.4,30.20,ESE,111,0.0,14.0,78,0.00,,,0.00,Wunderground v.1.15,2013-06-19 13:05:00,
2013-06-19 09:15:00,55.8,47.6,30.21,ENE,67,0.0,14.0,74,0.00,,,0.00,Wunderground v.1.15,2013-06-19 13:15:00,
2013-06-19 09:20:00,56.2,47.3,30.21,ENE,71,0.0,14.0,72,0.00,,,0.00,Wunderground v.1.15,2013-06-19 13:20:00,
2013-06-19 09:25:00,56.5,48.3,30.21,ENE,71,0.0,14.0,74,0.00,,,0.00,Wunderground v.1.15,2013-06-19 13:25:00,
2013-06-19 09:30:00,56.8,46.7,30.20,South,169,0.0,14.0,69,0.00,,,0.00,Wunderground v.1.15,2013-06-19 13:30:00,
2013-06-19 09:35:00,57.1,46.6,30.21,East,80,0.0,14.0,68,0.00,,,0.00,Wunderground v.1.15,2013-06-19 13:35:00,
2013-06-19 09:45:00,57.5,46.2,30.21,ESE,103,0.0,14.0,66,0.00,,,0.00,Wunderground v.1.15,2013-06-19 13:45:00,
2013-06-19 09:50:00,57.9,47.8,30.21,SSE,158,0.0,14.0,69,0.00,,,0.00,Wunderground v.1.15,2013-06-19 13:50:00,
2013-06-19 09:55:00,57.7,50.2,30.21,SSW,194,0.0,14.0,76,0.00,,,0.00,Wunderground v.1.15,2013-06-19 13:55:00,
2013-06-19 10:00:00,57.1,50.0,30.20,SSW,194,0.0,14.0,77,0.00,,,0.00,Wunderground v.1.15,2013-06-19 14:00:00,
2013-06-19 10:05:00,56.5,49.7,30.20,SSW,194,0.0,14.0,78,0.00,,,0.00,Wunderground v.1.15,2013-06-19 14:05:00,
2013-06-19 10:10:00,56.3,49.9,30.20,SSW,194,0.0,14.0,79,0.00,,,0.00,Wunderground v.1.15,2013-06-19 14:10:00,
2013-06-19 10:20:00,56.2,50.1,30.21,SSW,194,0.0,14.0,80,0.00,,,0.00,Wunderground v.1.15,2013-06-19 14:20:00,
2013-06-19 10:25:00,56.1,50.0,30.21,SSW,194,0.0,14.0,80,0.00,,,0.00,Wunderground v.1.15,2013-06-19 14:25:00,
2013-06-19 10:30:00,55.9,49.8,30.21,SSW,194,0.0,14.0,80,0.00,,,0.00,Wunderground v.1.15,2013-06-19 14:30:00,
2013-06-19 10:35:00,56.0,49.9,30.21,SSW,194,0.0,14.0,80,0.00,,,0.00,Wunderground v.1.15,2013-06-19 14:35:00,
2013-06-19 10:40:00,56.1,50.3,30.21,SSW,194,0.0,14.0,81,0.00,,,0.00,Wunderground v.1.15,2013-06-19 14:40:00,
2013-06-19 10:50:00,56.3,49.5,30.20,SSW,194,0.0,14.0,78,0.00,,,0.00,Wunderground v.1.15,2013-06-19 14:50:00,
2013-06-19 10:55:00,56.5,50.4,30.20,SSW,194,0.0,14.0,80,0.00,,,0.00,Wunderground v.1.15,2013-06-19 14:55:00,
2013-06-19 11:00:00,56.7,49.9,30.20,SSW,194,0.0,14.0,78,0.00,,,0.00,Wunderground v.1.15,2013-06-19 15:00:00,
2013-06-19 11:05:00,56.8,50.4,30.20,SSW,203,0.0,14.0,79,0.00,,,0.00,Wunderground v.1.15,2013-06-19 15:05:00,
2013-06-19 11:10:00,57.0,50.5,30.20,SSW,203,0.0,14.0,79,0.00,,,0.00,Wunderground v.1.15,2013-06-19 15:10:00,
2013-06-19 11:15:00,57.3,50.1,30.20,SSW,203,0.0,14.0,77,0.00,,,0.00,Wunderground v.1.15,2013-06-19 15:15:00,
2013-06-19 11:21:00,57.8,48.8,30.20,SSW,205,0.0,14.0,72,0.00,,,0.00,Wunderground v.1.15,2013-06-19 15:21:00,
2013-06-19 11:30:00,58.9,49.5,30.20,SSW,205,0.0,14.0,71,0.00,,,0.00,Wunderground v.1.15,2013-06-19 15:30:00,
2013-06-19 11:35:00,59.2,50.2,30.20,SSW,205,0.0,14.0,72,0.00,,,0.00,Wunderground v.1.15,2013-06-19 15:35:00,
2013-06-19 11:45:00,60.4,51.3,30.20,SSW,205,0.0,14.0,72,0.00,,,0.00,Wunderground v.1.15,2013-06-19 15:45:00,
2013-06-19 11:50:00,61.0,51.5,30.20,SSW,205,0.0,14.0,71,0.00,,,0.00,Wunderground v.1.15,2013-06-19 15:50:00,
2013-06-19 11:55:00,61.5,51.2,30.20,SSW,205,0.0,14.0,69,0.00,,,0.00,Wunderground v.1.15,2013-06-19 15:55:00,
2013-06-19 12:00:00,61.7,51.4,30.19,SSW,205,0.0,14.0,69,0.00,,,0.00,Wunderground v.1.15,2013-06-19 16:00:00,
2013-06-19 12:05:00,61.9,51.6,30.19,SSW,205,0.0,14.0,69,0.00,,,0.00,Wunderground v.1.15,2013-06-19 16:05:00,
2013-06-19 12:15:00,62.7,51.2,30.19,SSW,205,0.0,14.0,66,0.00,,,0.00,Wunderground v.1.15,2013-06-19 16:15:00,
2013-06-19 12:20:00,62.9,52.2,30.19,SSW,205,0.0,14.0,68,0.00,,,0.00,Wunderground v.1.15,2013-06-19 16:20:00,
2013-06-19 12:25:00,63.2,51.6,30.18,SSW,205,0.0,14.0,66,0.00,,,0.00,Wunderground v.1.15,2013-06-19 16:25:00,
2013-06-19 12:30:00,63.7,52.5,30.18,SSW,205,0.0,14.0,67,0.00,,,0.00,Wunderground v.1.15,2013-06-19 16:30:00,
2013-06-19 12:35:00,64.2,52.2,30.18,SSW,205,0.0,14.0,65,0.00,,,0.00,Wunderground v.1.15,2013-06-19 16:35:00,
2013-06-19 12:40:00,64.3,51.0,30.18,SSW,205,0.0,14.0,62,0.00,,,0.00,Wunderground v.1.15,2013-06-19 16:40:00,
2013-06-19 12:50:00,64.8,51.0,30.18,SSW,207,0.0,14.0,61,0.00,,,0.00,Wunderground v.1.15,2013-06-19 16:50:00,
2013-06-19 12:55:00,64.9,50.7,30.17,SSW,208,0.0,14.0,60,0.00,,,0.00,Wunderground v.1.15,2013-06-19 16:55:00,
2013-06-19 13:00:00,65.0,51.2,30.17,SSW,208,0.0,14.0,61,0.00,,,0.00,Wunderground v.1.15,2013-06-19 17:00:00,
2013-06-19 13:05:00,65.4,51.1,30.17,SSW,207,0.0,14.0,60,0.00,,,0.00,Wunderground v.1.15,2013-06-19 17:05:00,
2013-06-19 13:10:00,65.7,51.0,30.17,SSW,209,0.0,14.0,59,0.00,,,0.00,Wunderground v.1.15,2013-06-19 17:10:00,
2013-06-19 13:20:00,65.7,50.5,30.17,SSW,209,0.0,14.0,58,0.00,,,0.00,Wunderground v.1.15,2013-06-19 17:20:00,
2013-06-19 13:25:00,65.5,51.2,30.17,SSW,210,0.0,14.0,60,0.00,,,0.00,Wunderground v.1.15,2013-06-19 17:25:00,
2013-06-19 13:30:00,65.8,53.3,30.17,SW,216,0.0,14.0,64,0.00,,,0.00,Wunderground v.1.15,2013-06-19 17:30:00,
2013-06-19 13:35:00,65.9,53.4,30.17,SW,216,0.0,14.0,64,0.00,,,0.00,Wunderground v.1.15,2013-06-19 17:35:00,
2013-06-19 13:40:00,65.9,54.2,30.17,SW,215,0.0,14.0,66,0.00,,,0.00,Wunderground v.1.15,2013-06-19 17:40:00,
2013-06-19 13:45:00,66.1,55.2,30.17,SW,233,0.0,14.0,68,0.00,,,0.00,Wunderground v.1.15,2013-06-19 17:45:00,
2013-06-19 13:55:00,67.1,54.9,30.16,SW,233,0.0,14.0,65,0.00,,,0.00,Wunderground v.1.15,2013-06-19 17:55:00,
2013-06-19 14:00:00,67.0,55.3,30.16,SW,233,0.0,14.0,66,0.00,,,0.00,Wunderground v.1.15,2013-06-19 18:00:00,
2013-06-19 14:05:00,67.3,55.5,30.16,SW,233,0.0,14.0,66,0.00,,,0.00,Wunderground v.1.15,2013-06-19 18:05:00,
2013-06-19 14:10:00,66.9,53.9,30.16,SW,230,0.0,14.0,63,0.00,,,0.00,Wunderground v.1.15,2013-06-19 18:10:00,
2013-06-19 14:15:00,66.7,54.6,30.16,SW,230,0.0,14.0,65,0.00,,,0.00,Wunderground v.1.15,2013-06-19 18:15:00,
2013-06-19 14:25:00,67.7,53.3,30.16,SW,230,0.0,14.0,60,0.00,,,0.00,Wunderground v.1.15,2013-06-19 18:25:00,
2013-06-19 14:30:00,68.3,52.9,30.16,SW,230,0.0,14.0,58,0.00,,,0.00,Wunderground v.1.15,2013-06-19 18:30:00,
2013-06-19 14:35:00,68.8,52.0,30.15,SW,230,0.0,14.0,55,0.00,,,0.00,Wunderground v.1.15,2013-06-19 18:35:00,
2013-06-19 14:40:00,69.3,50.4,30.15,SW,230,0.0,14.0,51,0.00,,,0.00,Wunderground v.1.15,2013-06-19 18:40:00,
2013-06-19 14:45:00,69.8,50.3,30.15,SW,230,0.0,14.0,50,0.00,,,0.00,Wunderground v.1.15,2013-06-19 18:45:00,
2013-06-19 14:50:00,70.4,48.6,30.15,SW,230,0.0,14.0,46,0.00,,,0.00,Wunderground v.1.15,2013-06-19 18:50:00,
2013-06-19 15:00:00,71.7,49.2,30.15,SW,230,0.0,14.0,45,0.00,,,0.00,Wunderground v.1.15,2013-06-19 19:00:00,
2013-06-19 15:05:00,72.1,49.0,30.14,SW,230,0.0,14.0,44,0.00,,,0.00,Wunderground v.1.15,2013-06-19 19:05:00,
2013-06-19 15:10:00,68.8,54.8,30.15,WNW,284,2.0,14.0,61,0.00,,,0.00,Wunderground v.1.15,2013-06-19 19:10:00,
2013-06-19 15:15:00,65.0,52.5,30.14,WNW,287,3.0,14.0,64,0.00,,,0.00,Wunderground v.1.15,2013-06-19 19:15:00,
2013-06-19 15:20:00,62.7,51.6,30.15,WNW,290,3.0,14.0,67,0.00,,,0.00,Wunderground v.1.15,2013-06-19 19:20:00,
2013-06-19 15:30:00,61.5,51.2,30.15,WNW,292,4.0,14.0,69,0.00,,,0.00,Wunderground v.1.15,2013-06-19 19:30:00,
2013-06-19 15:35:00,61.1,50.5,30.15,WNW,291,4.0,14.0,68,0.00,,,0.00,Wunderground v.1.15,2013-06-19 19:35:00,
2013-06-19 15:40:00,60.5,50.3,30.15,WNW,291,5.0,14.0,69,0.00,,,0.00,Wunderground v.1.15,2013-06-19 19:40:00,
2013-06-19 15:45:00,60.4,50.6,30.15,WNW,283,5.0,14.0,70,0.00,,,0.00,Wunderground v.1.15,2013-06-19 19:45:00,
2013-06-19 15:50:00,60.3,50.5,30.15,WNW,286,5.0,14.0,70,0.00,,,0.00,Wunderground v.1.15,2013-06-19 19:50:00,
2013-06-19 15:55:00,60.3,51.6,30.15,WNW,287,5.0,14.0,73,0.00,,,0.00,Wunderground v.1.15,2013-06-19 19:55:00,
2013-06-19 16:05:00,60.6,51.1,30.15,WNW,292,4.0,14.0,71,0.00,,,0.00,Wunderground v.1.15,2013-06-19 20:05:00,
2013-06-19 16:10:00,60.9,50.7,30.14,WNW,288,4.0,4.0,69,0.00,,,0.00,Wunderground v.1.15,2013-06-19 20:10:00,
2013-06-19 16:15:00,60.9,50.3,30.14,WNW,286,4.0,5.0,68,0.00,,,0.00,Wunderground v.1.15,2013-06-19 20:15:00,
2013-06-19 16:20:00,60.5,50.7,30.14,WNW,284,5.0,14.0,70,0.00,,,0.00,Wunderground v.1.15,2013-06-19 20:20:00,
2013-06-19 16:25:00,60.2,50.8,30.14,WNW,288,5.0,14.0,71,0.00,,,0.00,Wunderground v.1.15,2013-06-19 20:25:00,
2013-06-19 16:30:00,60.1,50.7,30.14,WNW,290,4.0,14.0,71,0.00,,,0.00,Wunderground v.1.15,2013-06-19 20:30:00,
2013-06-19 16:35:00,60.1,51.0,30.14,WNW,288,5.0,14.0,72,0.00,,,0.00,Wunderground v.1.15,2013-06-19 20:35:00,
2013-06-19 16:40:00,60.3,50.9,30.14,WNW,286,5.0,14.0,71,0.00,,,0.00,Wunderground v.1.15,2013-06-19 20:40:00,
2013-06-19 16:45:00,60.7,50.9,30.14,WNW,291,4.0,14.0,70,0.00,,,0.00,Wunderground v.1.15,2013-06-19 20:45:00,
2013-06-19 16:50:00,61.0,50.8,30.14,WNW,285,4.0,14.0,69,0.00,,,0.00,Wunderground v.1.15,2013-06-19 20:50:00,
2013-06-19 16:55:00,61.2,50.2,30.14,WNW,288,4.0,14.0,67,0.00,,,0.00,Wunderground v.1.15,2013-06-19 20:55:00,
2013-06-19 17:00:00,61.2,50.9,30.14,West,281,4.0,14.0,69,0.00,,,0.00,Wunderground v.1.15,2013-06-19 21:00:00,
2013-06-19 17:10:00,61.4,50.7,30.14,WNW,290,4.0,14.0,68,0.00,,,0.00,Wunderground v.1.15,2013-06-19 21:10:00,
2013-06-19 17:15:00,61.5,51.2,30.14,WNW,290,3.0,14.0,69,0.00,,,0.00,Wunderground v.1.15,2013-06-19 21:15:00,
2013-06-19 17:20:00,61.6,50.5,30.14,WNW,288,3.0,14.0,67,0.00,,,0.00,Wunderground v.1.15,2013-06-19 21:20:00,
2013-06-19 17:30:00,61.8,51.9,30.13,WNW,290,3.0,3.0,70,0.00,,,0.00,Wunderground v.1.15,2013-06-19 21:30:00,
2013-06-19 17:35:00,61.8,50.3,30.13,WNW,288,2.0,14.0,66,0.00,,,0.00,Wunderground v.1.15,2013-06-19 21:35:00,
2013-06-19 17:45:00,61.5,50.8,30.13,WNW,288,2.0,14.0,68,0.00,,,0.00,Wunderground v.1.15,2013-06-19 21:45:00,
2013-06-19 17:50:00,61.5,50.4,30.13,WNW,287,2.0,14.0,67,0.00,,,0.00,Wunderground v.1.15,2013-06-19 21:50:00,
2013-06-19 18:00:00,61.9,52.0,30.13,WNW,288,1.0,14.0,70,0.00,,,0.00,Wunderground v.1.15,2013-06-19 22:00:00,
2013-06-19 18:05:00,62.2,51.9,30.13,WNW,288,1.0,14.0,69,0.00,,,0.00,Wunderground v.1.15,2013-06-19 22:05:00,
2013-06-19 18:10:00,62.6,51.5,30.13,WNW,288,1.0,1.0,67,0.00,,,0.00,Wunderground v.1.15,2013-06-19 22:10:00,
2013-06-19 18:20:00,62.5,51.8,30.13,WNW,288,0.0,14.0,68,0.00,,,0.00,Wunderground v.1.15,2013-06-19 22:20:00,
2013-06-19 18:30:00,62.9,51.4,30.13,WNW,287,0.0,14.0,66,0.00,,,0.00,Wunderground v.1.15,2013-06-19 22:30:00,
2013-06-19 18:35:00,63.4,53.0,30.12,WNW,287,0.0,14.0,69,0.00,,,0.00,Wunderground v.1.15,2013-06-19 22:35:00,
2013-06-19 18:40:00,64.1,52.1,30.12,WNW,288,0.0,14.0,65,0.00,,,0.00,Wunderground v.1.15,2013-06-19 22:40:00,
2013-06-19 18:45:00,65.0,52.5,30.12,WNW,288,0.0,14.0,64,0.00,,,0.00,Wunderground v.1.15,2013-06-19 22:45:00,
2013-06-19 18:50:00,65.9,52.5,30.12,WNW,288,0.0,14.0,62,0.00,,,0.00,Wunderground v.1.15,2013-06-19 22:50:00,
2013-06-19 18:55:00,65.9,52.9,30.12,WNW,294,0.0,14.0,63,0.00,,,0.00,Wunderground v.1.15,2013-06-19 22:55:00,
2013-06-19 19:00:00,66.2,52.8,30.12,WNW,294,0.0,14.0,62,0.00,,,0.00,Wunderground v.1.15,2013-06-19 23:00:00,
2013-06-19 19:10:00,66.4,53.0,30.12,WNW,294,0.0,14.0,62,0.00,,,0.00,Wunderground v.1.15,2013-06-19 23:10:00,
2013-06-19 19:15:00,66.3,52.4,30.12,WNW,294,0.0,14.0,61,0.00,,,0.00,Wunderground v.1.15,2013-06-19 23:15:00,
2013-06-19 19:20:00,65.8,51.5,30.12,WNW,294,0.0,14.0,60,0.00,,,0.00,Wunderground v.1.15,2013-06-19 23:20:00,
2013-06-19 19:25:00,65.6,51.3,30.12,WNW,294,0.0,14.0,60,0.00,,,0.00,Wunderground v.1.15,2013-06-19 23:25:00,
2013-06-19 19:30:00,65.4,51.6,30.13,WNW,294,0.0,14.0,61,0.00,,,0.00,Wunderground v.1.15,2013-06-19 23:30:00,
2013-06-19 19:35:00,64.6,50.8,30.13,WNW,294,0.0,14.0,61,0.00,,,0.00,Wunderground v.1.15,2013-06-19 23:35:00,
2013-06-19 19:45:00,63.5,49.8,30.13,WNW,294,0.0,14.0,61,0.00,,,0.00,Wunderground v.1.15,2013-06-19 23:45:00,
2013-06-19 19:50:00,62.9,48.8,30.13,WNW,294,0.0,14.0,60,0.00,,,0.00,Wunderground v.1.15,2013-06-19 23:50:00,
2013-06-19 20:00:00,61.3,49.0,30.13,NW,313,0.0,14.0,64,0.00,,,0.00,Wunderground v.1.15,2013-06-20 00:00:00,
2013-06-19 20:05:00,61.4,49.5,30.12,NW,313,0.0,14.0,65,0.00,,,0.00,Wunderground v.1.15,2013-06-20 00:05:00,
2013-06-19 20:10:00,61.6,50.1,30.12,NW,313,0.0,14.0,66,0.00,,,0.00,Wunderground v.1.15,2013-06-20 00:10:00,
2013-06-19 20:20:00,62.1,51.0,30.12,NW,313,0.0,14.0,67,0.00,,,0.00,Wunderground v.1.15,2013-06-20 00:20:00,
2013-06-19 20:25:00,62.2,50.7,30.12,NW,313,0.0,14.0,66,0.00,,,0.00,Wunderground v.1.15,2013-06-20 00:25:00,
2013-06-19 20:30:00,62.3,50.8,30.12,NW,313,0.0,14.0,66,0.00,,,0.00,Wunderground v.1.15,2013-06-20 00:30:00,
2013-06-19 20:40:00,62.0,51.7,30.13,NW,313,0.0,14.0,69,0.00,,,0.00,Wunderground v.1.15,2013-06-20 00:40:00,
2013-06-19 20:45:00,61.8,51.5,30.13,NW,313,0.0,14.0,69,0.00,,,0.00,Wunderground v.1.15,2013-06-20 00:45:00,
2013-06-19 20:50:00,61.4,51.1,30.12,NW,313,0.0,14.0,69,0.00,,,0.00,Wunderground v.1.15,2013-06-20 00:50:00,
2013-06-19 21:00:00,60.2,50.0,30.13,NW,313,0.0,14.0,69,0.00,,,0.00,Wunderground v.1.15,2013-06-20 01:00:00,
2013-06-19 21:05:00,59.6,49.8,30.12,NW,313,0.0,14.0,70,0.00,,,0.00,Wunderground v.1.15,2013-06-20 01:05:00,
2013-06-19 21:10:00,59.2,49.0,30.13,NW,313,0.0,14.0,69,0.00,,,0.00,Wunderground v.1.15,2013-06-20 01:10:00,
2013-06-19 21:15:00,59.0,49.6,30.12,NW,313,0.0,14.0,71,0.00,,,0.00,Wunderground v.1.15,2013-06-20 01:15:00,
2013-06-19 21:20:00,59.0,50.4,30.12,NW,313,0.0,14.0,73,0.00,,,0.00,Wunderground v.1.15,2013-06-20 01:20:00,
2013-06-19 21:30:00,58.3,50.4,30.12,NW,313,0.0,14.0,75,0.00,,,0.00,Wunderground v.1.15,2013-06-20 01:30:00,
2013-06-19 21:35:00,58.0,50.5,30.12,NW,313,0.0,14.0,76,0.00,,,0.00,Wunderground v.1.15,2013-06-20 01:35:00,
2013-06-19 21:40:00,57.7,50.9,30.12,NW,313,0.0,14.0,78,0.00,,,0.00,Wunderground v.1.15,2013-06-20 01:40:00,
2013-06-19 21:50:00,57.1,50.0,30.12,NW,313,0.0,14.0,77,0.00,,,0.00,Wunderground v.1.15,2013-06-20 01:50:00,
2013-06-19 21:55:00,56.8,50.0,30.12,NW,313,0.0,14.0,78,0.00,,,0.00,Wunderground v.1.15,2013-06-20 01:55:00,
2013-06-19 22:00:00,56.5,50.1,30.12,NW,313,0.0,14.0,79,0.00,,,0.00,Wunderground v.1.15,2013-06-20 02:00:00,
2013-06-19 22:10:00,56.0,50.3,30.12,NW,313,0.0,14.0,81,0.00,,,0.00,Wunderground v.1.15,2013-06-20 02:10:00,
2013-06-19 22:15:00,55.8,50.1,30.12,North,355,0.0,14.0,81,0.00,,,0.00,Wunderground v.1.15,2013-06-20 02:15:00,
2013-06-19 22:25:00,55.5,50.4,30.12,North,355,0.0,14.0,83,0.00,,,0.00,Wunderground v.1.15,2013-06-20 02:25:00,
2013-06-19 22:30:00,55.4,50.3,30.13,North,355,0.0,14.0,83,0.00,,,0.00,Wunderground v.1.15,2013-06-20 02:30:00,
2013-06-19 22:35:00,55.3,50.5,30.13,North,355,0.0,14.0,84,0.00,,,0.00,Wunderground v.1.15,2013-06-20 02:35:00,
2013-06-19 22:40:00,55.1,50.4,30.13,North,355,0.0,14.0,84,0.00,,,0.00,Wunderground v.1.15,2013-06-20 02:40:00,
2013-06-19 22:45:00,54.9,50.2,30.13,North,355,0.0,14.0,84,0.00,,,0.00,Wunderground v.1.15,2013-06-20 02:45:00,
2013-06-19 22:50:00,54.8,50.1,30.13,North,355,0.0,14.0,84,0.00,,,0.00,Wunderground v.1.15,2013-06-20 02:50:00,
2013-06-19 23:00:00,54.5,49.8,30.14,NE,43,0.0,14.0,84,0.00,,,0.00,Wunderground v.1.15,2013-06-20 03:00:00,
2013-06-19 23:05:00,54.3,49.6,30.14,NE,43,0.0,14.0,84,0.00,,,0.00,Wunderground v.1.15,2013-06-20 03:05:00,
2013-06-19 23:15:00,54.0,49.3,30.13,NE,42,0.0,14.0,84,0.00,,,0.00,Wunderground v.1.15,2013-06-20 03:15:00,
2013-06-19 23:20:00,53.9,49.2,30.13,NE,43,0.0,14.0,84,0.00,,,0.00,Wunderground v.1.15,2013-06-20 03:20:00,
2013-06-19 23:25:00,53.9,49.2,30.13,NE,43,0.0,14.0,84,0.00,,,0.00,Wunderground v.1.15,2013-06-20 03:25:00,
2013-06-19 23:30:00,53.8,49.4,30.13,NE,43,0.0,14.0,85,0.00,,,0.00,Wunderground v.1.15,2013-06-20 03:30:00,
2013-06-19 23:40:00,53.7,49.3,30.14,NE,43,0.0,14.0,85,0.00,,,0.00,Wunderground v.1.15,2013-06-20 03:40:00,
2013-06-19 23:45:00,53.6,49.5,30.14,NE,42,0.0,14.0,86,0.00,,,0.00,Wunderground v.1.15,2013-06-20 03:45:00,
2013-06-19 23:50:00,54.1,49.7,30.14,NE,43,0.0,14.0,85,0.00,,,0.00,Wunderground v.1.15,2013-06-20 03:50:00,
2013-06-19 23:55:00,54.2,49.8,30.14,NE,43,0.0,14.0,85,0.00,,,0.00,Wunderground v.1.15,2013-06-20 03:55:00,